Weather History for Boonville, MO

Change the Weather History Date:

Wednesday, May 23, 2012

  Actual Average Record
Temperature  
Mean Temperature 72 °F -  
Max Temperature 87 °F 76 °F 90 °F (1956)
Min Temperature 56 °F 55 °F 39 °F (1963)
Cooling Degree Days 6    
Growing Degree Days 22 (Base 50)    
Moisture  
Dew Point 50 °F    
Average Humidity 47    
Maximum Humidity 75    
Minimum Humidity 29    
Precipitation  
Precipitation 0.00 in - - ()
Sea Level Pressure  
Sea Level Pressure 29.73 in    
Wind  
Wind Speed 10 mph (SE)    
Max Wind Speed 20 mph    
Max Gust Speed 28 mph    
Visibility 10 miles    
Events      
Averages and records for this station are not official NWS values.
T = Trace of Precipitation, MM = Missing Value Source: NWS Daily Summary

Daily Weather History Graph

Daily Weather History Graph

Search for Another Location

Airport:

Trip Planner

Search our weather history database for the weather conditions in past years. The results will help you decide how hot, cold, wet, or windy it might be!

Date:

Astronomy

May. 23, 2012 Rise Set
Actual Time 5:51 AM CDT 8:23 PM CDT
Civil Twilight 5:20 AM CDT 8:54 PM CDT
Nautical Twilight 4:42 AM CDT 9:33 PM CDT
Astronomical Twilight 3:59 AM CDT 10:15 PM CDT
Moon 7:55 AM CDT (5/23) 10:45 PM CDT (5/23)
Length of Visible Light 15h 34m
Length of Day
14h 32m
Waxing Crescent, 7% of the Moon is Illuminated
May 23
Waxing Crescent
May 28
First Quarter
Jun 4
Full
Jun 11
Last Quarter
Jun 19
New

Hourly Weather History & Observations

Time (CDT) Temp. Dew Point Humidity Pressure Visibility Wind Dir Wind Speed Gust Speed Precip Events Conditions
12:15 AM 60.1 °F 47.7 °F 64% 29.85 in 10.0 mi ESE 5.8 mph - N/A   Clear
12:35 AM 59.9 °F 48.2 °F 65% 29.85 in 10.0 mi SE 6.9 mph - N/A   Clear
12:55 AM 59.7 °F 48.2 °F 66% 29.85 in 10.0 mi SE 5.8 mph - N/A   Clear
1:15 AM 59.2 °F 48.4 °F 67% 29.85 in 10.0 mi ESE 5.8 mph - N/A   Clear
1:35 AM 59.2 °F 48.6 °F 68% 29.84 in 10.0 mi SE 5.8 mph - N/A   Clear
1:55 AM 58.8 °F 48.6 °F 69% 29.83 in 10.0 mi SE 6.9 mph - N/A   Clear
2:15 AM 59.0 °F 48.7 °F 69% 29.83 in 10.0 mi SE 8.1 mph - N/A   Clear
2:35 AM 59.2 °F 49.1 °F 69% 29.82 in 10.0 mi SE 8.1 mph - N/A   Clear
2:55 AM 59.0 °F 49.1 °F 70% 29.82 in 10.0 mi SE 5.8 mph - N/A   Clear
3:15 AM 58.5 °F 49.1 °F 71% 29.82 in 10.0 mi SSE 5.8 mph - N/A   Clear
3:35 AM 57.7 °F 48.9 °F 72% 29.82 in 10.0 mi SE 6.9 mph - N/A   Clear
3:55 AM 57.2 °F 48.7 °F 73% 29.82 in 10.0 mi SE 5.8 mph - N/A   Clear
4:15 AM 57.2 °F 49.1 °F 74% 29.81 in 10.0 mi SE 5.8 mph - N/A   Clear
4:35 AM 56.8 °F 48.9 °F 75% 29.81 in 10.0 mi SE 5.8 mph - N/A   Clear
5:15 AM 56.3 °F 48.6 °F 75% 29.81 in 10.0 mi SSE 6.9 mph - N/A   Clear
5:35 AM 57.0 °F 48.2 °F 72% 29.80 in 10.0 mi SE 8.1 mph - N/A   Clear
5:55 AM 57.7 °F 48.2 °F 70% 29.80 in 10.0 mi SE 8.1 mph - N/A   Clear
6:15 AM 58.3 °F 48.0 °F 69% 29.80 in 10.0 mi SE 8.1 mph - N/A   Clear
6:35 AM 58.6 °F 48.2 °F 68% 29.80 in 10.0 mi SE 8.1 mph - N/A   Clear
6:55 AM 59.4 °F 48.4 °F 67% 29.80 in 10.0 mi SE 9.2 mph - N/A   Clear
7:15 AM 61.0 °F 48.9 °F 64% 29.80 in 10.0 mi SE 10.4 mph - N/A   Clear
7:35 AM 62.6 °F 48.7 °F 60% 29.81 in 10.0 mi SSE 11.5 mph - N/A   Clear
7:55 AM 64.2 °F 48.6 °F 57% 29.80 in 10.0 mi SSE 12.7 mph - N/A   Clear
8:15 AM 66.0 °F 48.4 °F 53% 29.81 in 10.0 mi SSE 11.5 mph - N/A   Clear
8:35 AM 67.8 °F 48.6 °F 50% 29.81 in 10.0 mi SSE 10.4 mph 18.4 mph N/A   Clear
8:55 AM 69.3 °F 48.7 °F 48% 29.81 in 10.0 mi SSE 11.5 mph 17.3 mph N/A   Clear
9:15 AM 70.9 °F 48.7 °F 45% 29.81 in 10.0 mi SSE 13.8 mph 17.3 mph N/A   Clear
9:35 AM 72.3 °F 49.5 °F 44% 29.80 in 10.0 mi SSE 12.7 mph 17.3 mph N/A   Clear
9:55 AM 73.4 °F 49.3 °F 42% 29.79 in 10.0 mi SSE 15.0 mph 20.7 mph N/A   Clear
10:15 AM 74.5 °F 49.1 °F 41% 29.79 in 10.0 mi South 15.0 mph 19.6 mph N/A   Clear
10:35 AM 75.7 °F 50.0 °F 40% 29.79 in 10.0 mi SSE 15.0 mph - N/A   Clear
10:55 AM 77.2 °F 50.0 °F 38% 29.79 in 10.0 mi SSE 17.3 mph 21.9 mph N/A   Clear
11:15 AM 78.3 °F 49.5 °F 36% 29.78 in 10.0 mi SSE 13.8 mph 21.9 mph N/A   Clear
11:35 AM 79.3 °F 49.5 °F 35% 29.77 in 10.0 mi SSE 16.1 mph 20.7 mph N/A   Clear
11:55 AM 80.2 °F 50.0 °F 35% 29.76 in 10.0 mi SSE 12.7 mph 18.4 mph N/A   Clear
12:15 PM 80.6 °F 50.0 °F 34% 29.76 in 10.0 mi SE 15.0 mph 19.6 mph N/A   Clear
12:35 PM 82.0 °F 50.7 °F 34% 29.75 in 10.0 mi SSE 11.5 mph 19.6 mph N/A   Clear
12:55 PM 82.4 °F 50.2 °F 33% 29.74 in 10.0 mi SSE 13.8 mph 20.7 mph N/A   Clear
1:15 PM 83.1 °F 50.0 °F 32% 29.73 in 10.0 mi SSE 15.0 mph 20.7 mph N/A   Clear
1:35 PM 83.7 °F 50.0 °F 31% 29.72 in 10.0 mi SSE 17.3 mph 20.7 mph N/A   Clear
1:55 PM 84.4 °F 49.8 °F 30% 29.72 in 10.0 mi SSE 17.3 mph 21.9 mph N/A   Clear
2:15 PM 84.9 °F 50.2 °F 30% 29.71 in 10.0 mi SSE 17.3 mph - N/A   Clear
2:35 PM 85.8 °F 51.3 °F 30% 29.70 in 10.0 mi SSE 13.8 mph 20.7 mph N/A   Clear
2:55 PM 85.8 °F 51.4 °F 30% 29.69 in 10.0 mi SSE 12.7 mph 23.0 mph N/A   Clear
3:15 PM 86.5 °F 51.6 °F 30% 29.69 in 10.0 mi SSE 15.0 mph 19.6 mph N/A   Clear
3:35 PM 86.7 °F 51.4 °F 30% 29.68 in 10.0 mi SE 17.3 mph 23.0 mph N/A   Clear
3:55 PM 86.9 °F 52.5 °F 31% 29.67 in 10.0 mi SSE 13.8 mph 20.7 mph N/A   Clear
4:15 PM 87.1 °F 52.2 °F 30% 29.66 in 10.0 mi SSE 16.1 mph 24.2 mph N/A   Clear
4:35 PM 87.1 °F 52.3 °F 30% 29.65 in 10.0 mi SSE 15.0 mph - N/A   Clear
4:55 PM 87.3 °F 52.7 °F 30% 29.64 in 10.0 mi SSE 19.6 mph 24.2 mph N/A   Clear
5:15 PM 87.1 °F 52.2 °F 30% 29.64 in 10.0 mi SSE 18.4 mph 25.3 mph N/A   Clear
5:35 PM 86.7 °F 51.6 °F 30% 29.63 in 10.0 mi SSE 16.1 mph 27.6 mph N/A   Clear
5:55 PM 86.4 °F 51.6 °F 30% 29.62 in 10.0 mi SSE 13.8 mph 23.0 mph N/A   Clear
6:15 PM 86.2 °F 51.3 °F 30% 29.61 in 10.0 mi SE 19.6 mph 25.3 mph N/A   Clear
6:35 PM 85.6 °F 50.5 °F 30% 29.61 in 10.0 mi SSE 16.1 mph - N/A   Clear
6:55 PM 84.9 °F 49.8 °F 30% 29.60 in 10.0 mi SSE 17.3 mph 25.3 mph N/A   Clear
7:15 PM 84.2 °F 49.1 °F 29% 29.60 in 10.0 mi SSE 13.8 mph 18.4 mph N/A   Clear
7:35 PM 82.8 °F 49.3 °F 31% 29.61 in 10.0 mi SE 9.2 mph - N/A   Clear
7:55 PM 81.0 °F 48.7 °F 32% 29.61 in 10.0 mi SSE 10.4 mph - N/A   Clear
8:15 PM 79.3 °F 48.0 °F 33% 29.61 in 10.0 mi SSE 10.4 mph - N/A   Clear
8:35 PM 77.7 °F 47.8 °F 35% 29.61 in 10.0 mi SE 5.8 mph - N/A   Clear
8:55 PM 75.7 °F 48.7 °F 38% 29.61 in 10.0 mi SE 10.4 mph - N/A   Clear
9:15 PM 75.2 °F 49.3 °F 40% 29.62 in 10.0 mi SE 8.1 mph - N/A   Clear
9:35 PM 74.5 °F 49.6 °F 42% 29.62 in 10.0 mi SE 9.2 mph - N/A   Clear
9:55 PM 73.9 °F 49.8 °F 43% 29.63 in 10.0 mi SE 10.4 mph - N/A   Clear
10:15 PM 73.9 °F 49.3 °F 42% 29.63 in 10.0 mi SE 10.4 mph - N/A   Clear
10:35 PM 73.6 °F 49.1 °F 42% 29.63 in 10.0 mi SE 11.5 mph - N/A   Clear
10:55 PM 73.6 °F 49.3 °F 42% 29.64 in 10.0 mi SSE 11.5 mph 18.4 mph N/A   Clear
11:15 PM 73.4 °F 49.6 °F 43% 29.64 in 10.0 mi SE 10.4 mph - N/A   Clear
11:35 PM 72.9 °F 49.6 °F 44% 29.64 in 10.0 mi SSE 12.7 mph 17.3 mph N/A   Clear
11:55 PM 72.9 °F 49.3 °F 43% 29.64 in 10.0 mi SSE 12.7 mph - N/A   Clear